Regional Weather Roundup
Issued by NWS

Current Version | Previous Version | Text Only | Print | Product List | Glossary Off
Versions: 1 2 3 4 5 6 7 8 9 10 11 12 13 14 15 16 17 18 19 20 21 22 23 24 25 26 27 28 29 30 31 32 33 34 35 36 37 38 39 40 41 42 43 44 45 46 47 48 49 50

875
ASUS44 KJAN 300710
RWRMS

MISSISSIPPI HOURLY WEATHER ROUNDUP
NATIONAL WEATHER SERVICE JACKSON MS
200 AM CDT THU MAR 30 2017

NOTE: "FAIR: INDICATES FEW OR NO CLOUDS BELOW 12,000 FEET WITH NO
SIGNIFICANT WEATHER AND/OR OBSTRUCTIONS TO VISIBILITY.

MSZ001>002-007>008-010>013-018>021-025>028-034>036-300800-
NORTHWEST MISSISSIPPI

CITY           SKY/WX    TMP DP  RH WIND       PRES   REMARKS
BATESVILLE     FAIR      63  61  94 CALM      29.81R
CLEVELAND      PTSUNNY   68  62  80 S12G17    29.77F
GREENWOOD      RAIN      65  63  93 SW17G28   29.86F
GREENVILLE     CLOUDY    66  57  72 S10       29.78S
OXFORD         FAIR      68  59  73 SE8       29.81F
TUNICA         CLOUDY    63  59  88 S12       29.77S
WINONA         TSTM      67  66  96 W8        29.86R
$$

MSZ003>006-009-014>017-022>024-029>033-037>039-300800-
NORTHEAST MISSISSIPPI

CITY           SKY/WX    TMP DP  RH WIND       PRES   REMARKS
COLUMBUS AFB   CLOUDY    70  62  74 S10       29.86F
CORINTH        FAIR      70  57  64 S10       29.80F
GOLDN TRIANGLE CLOUDY   N/A N/A N/A S9        29.84S
STARKVILLE     FAIR      68  61  77 S9        29.89S
TUPELO         CLOUDY    70  58  65 SE15      29.82F
$$

MSZ040-058-300800-
CENTRAL MISSISSIPPI

CITY           SKY/WX    TMP DP  RH WIND       PRES   REMARKS
JACKSON INTL   HVY RAIN  63  61  93 SW9       29.94R FOG
JACKSON HAWKNS RAIN      63  61  93 S8        29.94R FOG
MADISON        CLOUDY    61  59  94 W10G20    29.92R THUNDER
MERIDIAN KEY   MOCLDY    70  66  87 S12       29.90F
MERIDIAN NAS   CLOUDY    70  61  73 S8        29.91F
RAYMOND        DRIZZLE   64  63  94 S5        29.91F
VICKSBURG VKS  CLOUDY    64  61  88 SE20      29.72F
$$

MSZ059>079-300800-
SOUTH MISSISSIPPI

CITY           SKY/WX    TMP DP  RH WIND       PRES   REMARKS
BROOKHAVEN     HVY RAIN  63  61  94 NE7       29.94S
COLUMBIA       FAIR      70 -38   1 SW7       29.93R
HATTIESBURG    MOCLDY    70  66  87 SE8       29.91F
MCCOMB         LGT RAIN  66  61  84 N9        29.90F
NATCHEZ        NOT AVBL
PINE BELT      CLOUDY    70  64  83 SE12      29.91F
$$

MSZ080>082-300800-
COASTAL MISSISSIPPI

CITY           SKY/WX    TMP DP  RH WIND       PRES   REMARKS
BILOXI         CLOUDY    73  68  84 S14G21    29.89F
PASCAGOULA     MOCLDY    72  66  81 S7        29.91F
GULFPORT       CLOUDY    73  68  84 S10       29.90S
$$

LAZ007>009-015>016-023>026-300800-
NORTHEAST LOUISIANA

CITY           SKY/WX    TMP DP  RH WIND       PRES   REMARKS
BASTROP        CLOUDY    65  65  98 SW8       29.78F
TALLULAH/VBURG CLOUDY    65  58  78 VRB7      29.77F
VIDALIA        LGT RAIN  65  63  94 S10       29.81R
$$




USA.gov is the U.S. government's official web portal to all federal, state and local government web resources and services.